weather.gov     
National Weather Service

Regional Weather Roundup
NWS Homepage
This page is being discontinued on March 12, 2014.
The same data is available at this site. Please update your bookmarks.
Thank you, and we apologize for the inconvenience.
Please send an email to SR-SRH.Webmaster@noaa.gov with any concerns.


Current Version
Previous Version:    01  02  03  04  05  06  07  08  09  10  11  12  13  14  15  16  17  18  19  20  21  22  23  24  25  26  
[Printable]
748
ASUS44 KLCH 250610
RWRLCH
RWRLCH
REGIONAL WEATHER ROUNDUP
NATIONAL WEATHER SERVICE LAKE CHARLES LA
100 AM CDT FRI APR 25 2014

Note: "fair" indicates few or no clouds below 12,000 feet with no
significant weather and/or obstructions to visibility.


ACROSS SOUTHEAST TEXAS

CITY           SKY/WX    TMP DP  RH WIND       PRES   REMARKS
BEAUMONT         N/A     64  64 100 CALM      29.92S FOG
BEAUMONT CITY    N/A     65  65 100 CALM      29.93S
ORANGE           N/A     68  67  98 CALM      29.94F
JASPER           N/A     65  64  94 CALM      29.94S FOG
$$

ACROSS CENTRAL LOUISIANA

CITY           SKY/WX    TMP DP  RH WIND       PRES   REMARKS
LEESVILLE        N/A     68  66  93 SW5       29.91S
FULLERTON        N/A     70  65  84 VRB5      29.89S
ALEXANDRIA INT   N/A     70  66  87 SW7       29.89S
ESLER FIELD      N/A     69  65  86 SW6       29.90S
DERIDDER         N/A     67  65  93 CALM      29.94S
OAKDALE          N/A     68  66  94 S3        29.91F
OPELOUSAS        N/A     69  67  93 S6        29.92F
$$

ACROSS SOUTHWEST AND SOUTH CENTRAL LOUISIANA

CITY           SKY/WX    TMP DP  RH WIND       PRES   REMARKS
SULPHUR          N/A     69  68  98 CALM      29.94S
LAKE CHARLES     N/A     66  65  96 CALM      29.93S
CHENNAULT INT    N/A     70  67  89 SW5       29.94S
CAMERON PHI      N/A     72  70  94 SW6       29.93F
DEQUINCY         N/A     66  65  96 S3        29.92F
JENNINGS       CLOUDY    70  69  96 CALM      29.93F
LAFAYETTE      CLOUDY    72  69  90 SW6       29.94R
NEW IBERIA     CLOUDY    73  68  84 SW5       29.94S
ABBEVILLE      CLOUDY    78  78 100 SW3       29.93S
PATTERSON      MOCLDY    70  70 100 SW6       29.97S
SALT POINT       N/A     73  70  90 CALM      29.93S
$$

SELECTED SITES ACROSS THE REGION

CITY           SKY/WX    TMP DP  RH WIND       PRES   REMARKS
HOUSTON BUSH     N/A     71  68  90 CALM      29.91F
HOUSTON HOBBY  MOCLDY    68  66  93 S3        29.91F
GALVESTON      MOCLDY    71  70  96 S7        29.93S
COLLEGE STAT     N/A     71  67  87 CALM      29.93R
CONROE           N/A     65  64  97 CALM      29.92F
HUNTSVILLE       N/A     68  65  90 CALM      29.93R
LUFKIN           N/A     68  65  90 E3        29.92S FOG
SHREVEPORT       N/A     66  53  63 N8        29.91R
MONROE           N/A     68  65  90 W6        29.90R
NATCHEZ MS       N/A     70  64  83 S6        29.90F
BATON ROUGE    CLOUDY    73  67  81 SW8       29.93S
N.O. INTL ARPT MOCLDY    69  67  93 W6        29.94S
SLIDELL        CLOUDY    72  67  84 S5        29.92F
$$

MARINE REPORTS

STATION/POSITION TIME  TEMP    WIND        PRES    VSBY  WAVE
                       AIR SEA DIR/SP/G                  HT/PER
                 (UTC) (F)     (DEG/KT/KT) (MB)    (MI)  (FT/S)
BUOY 30 S HIGH I 0600   70 70  200/  2/  2 1013.2R         3/ 6
SEA RIM ST PARK  0600   71     210/  5/  6 1013.8F
PORT ARTHUR      0600      72  180/  2/  2 1013.4S
SABINE PASS N    0600   70 71  230/  1/  3 1013.3R
TEXAS POINT      0600   71 72  210/  5/  7 1013.5S
CALCASIEU PASS   0600   72 74  220/  5/  6 1014.4F
LK CHARLES BEACH 0600   70 75              1014.1S
MARSH ISLAND     0500   72     210/  3/  9   N/A
FRESH WATER LOCK 0600   72 77  190/  7/ 10 1013.4F
AMERADA PASS     0600   71 67  180/  2/  6 1013.7F
$$




U.S. Dept. of Commerce
NOAA National Weather Service
1325 East West Highway
Silver Spring, MD 20910
E-mail: w-nws.webmaster@noaa.gov
Page last modified: May 16, 2007
NATIONAL WEATHER SERVICE: for Safety, for Work, for Fun - FOR LIFE